User: anonymous   Login
Location: Unspecified
(0.0000°N, 0.0000°E)
Time: 06:09:43
(UTC+00:00)
Language:

MAST - Orbit

View from above orbital plane
View from above orbital plane
View from above satellite
View from above satellite

Ground track
Ground track

The orbit data is extracted from the following two-line orbital elements,

1 31126U 07012K   18116.26381527  .00000078  00000-0  27239-4 0  9996
2 31126  98.1027  62.2857 0088851 283.9182  75.2146 14.56632803585455
Epoch (UTC): 26 April 2018 06:19:53
Eccentricity: 0.0088851
inclination: 98.1027°
perigee height: 641 km
apogee height: 767 km
right ascension of ascending node: 62.2857°
argument of perigee: 283.9182°
revolutions per day: 14.56632803
mean anomaly at epoch: 75.2146°
orbit number at epoch: 58545

The dashed part of the orbit path shows where the satellite is in the earth's shadow,  

DLR